Wind_Speed
29 30 32 32 31 31 28 28 28 27 27 28 27 25 23 22 19 18 17 15 14 14 14 14 14 14 14 14 14 14 13 13 12 12 12 11 11 11 10 9 8 7 6
27 28 29 30 31 31 30 29 28 28 28 28 28 27 25 24 22 20 19 18 16 16 15 15 15 15 15 15 15 14 14 14 13 13 12 12 11 11 10 9 8 7 6
24 26 27 29 29 30 31 31 29 29 28 28 28 29 28 27 24 23 22 19 18 17 17 17 17 16 16 16 15 15 15 14 14 14 13 12 12 11 10 9 8 7 6
20 22 25 27 28 29 30 31 31 31 30 29 28 29 30 29 27 25 24 22 20 20 19 19 18 18 17 17 17 16 15 15 15 15 14 13 12 11 11 10 8 7 6
18 20 22 24 26 28 29 30 31 31 31 31 29 29 31 31 30 28 26 25 23 22 22 21 20 19 19 18 18 17 16 16 16 16 15 14 13 12 11 10 9 8 7
15 18 20 22 24 26 28 29 30 31 32 32 31 30 31 31 31 30 28 27 26 25 24 23 22 21 21 20 19 18 17 17 16 16 16 15 15 14 13 11 11 10 8
11 14 17 19 21 23 25 27 29 30 31 31 32 31 31 32 32 31 29 29 28 27 26 25 25 24 23 22 21 20 19 18 18 17 16 16 16 15 14 13 12 11 10
10 10 12 15 18 20 22 25 26 29 30 31 32 32 32 33 32 32 32 31 31 30 29 28 27 26 25 24 23 22 22 21 20 19 18 17 17 16 16 15 14 12 11
10 9 10 12 14 17 19 22 24 26 29 30 31 32 32 32 34 34 35 35 34 32 32 31 30 29 28 27 26 25 24 23 22 21 20 19 18 17 17 16 16 14 13
10 9 9 9 11 14 17 19 22 24 27 29 31 32 33 34 35 35 35 36 35 35 34 33 33 32 31 30 29 28 27 26 25 24 23 21 20 19 18 18 17 16 15
12 11 10 10 11 12 15 17 20 23 25 28 30 32 33 34 36 37 37 37 37 36 36 36 35 34 33 32 31 30 29 28 28 27 25 24 23 21 20 20 19 18 17
14 13 11 10 10 12 14 16 19 22 24 27 30 32 32 33 35 37 37 37 38 39 38 37 37 35 35 34 34 33 32 31 30 29 28 27 25 24 23 22 21 20 19
17 15 13 11 11 11 13 15 17 20 23 26 29 32 33 34 35 36 38 38 38 39 40 39 39 37 36 36 35 35 35 34 32 31 30 29 28 27 26 25 24 23 22
19 17 15 13 12 11 12 14 16 18 21 24 27 30 33 35 36 36 38 39 40 40 41 41 41 40 39 38 37 37 36 36 36 35 33 32 31 30 29 27 26 25 25
19 19 17 15 13 12 11 13 14 16 19 22 24 27 31 34 36 37 38 39 40 41 41 41 41 41 41 41 41 40 39 38 37 37 37 35 34 32 31 31 30 28 27
21 20 19 17 15 13 12 12 13 15 17 20 23 25 28 31 35 37 38 39 40 40 41 42 42 42 42 42 42 42 41 40 39 39 38 37 37 36 34 33 32 31 30
22 22 21 19 17 14 13 13 13 13 15 17 21 24 27 29 31 35 37 38 39 40 39 42 43 42 43 43 43 43 42 41 40 40 40 39 39 38 37 36 35 34 33
22 22 22 21 19 17 15 14 13 13 13 14 17 20 24 27 29 32 35 36 38 39 40 41 42 42 42 42 43 44 44 43 42 41 41 41 40 39 39 38 37 36 34
22 22 22 22 20 19 17 16 15 13 12 12 13 16 19 23 27 29 31 34 36 37 38 40 41 42 42 42 42 43 44 43 42 42 42 41 41 40 40 40 39 37 36
23 23 23 22 21 20 19 17 16 14 13 12 12 13 15 19 23 26 28 31 33 35 37 38 40 41 41 43 42 43 43 43 43 42 42 41 42 41 40 40 39 38 37
23 23 23 22 22 21 20 18 17 15 13 12 11 11 12 15 18 22 25 27 30 32 34 36 38 40 41 41 42 42 43 43 43 43 42 42 42 42 42 41 40 39 38
23 23 23 22 22 21 21 19 18 16 14 11 10 9 10 12 15 18 22 25 27 29 31 33 35 38 39 39 40 42 42 42 42 43 43 42 44 44 43 43 41 40 39
23 23 23 22 21 21 20 19 18 16 14 12 10 9 9 10 12 14 18 22 25 27 29 31 32 35 37 39 39 40 41 42 42 43 44 44 44 44 44 44 43 42 41
23 23 23 22 21 20 20 19 18 16 14 12 11 10 9 9 11 13 16 19 22 25 27 29 30 33 35 36 37 38 39 40 41 42 43 42 42 42 42 43 43 43 42
23 23 23 22 22 20 19 18 18 16 15 14 12 11 10 10 10 12 13 16 19 23 25 27 29 30 33 34 36 37 39 40 40 41 43 43 42 43 43 43 43 42 41
23 22 22 22 22 21 20 19 17 16 16 15 13 12 11 11 11 11 12 14 16 19 22 24 27 28 31 33 35 36 38 39 40 40 40 41 42 43 43 43 44 43 43
Wind_Direction
254 252 249 249 248 247 248 246 244 242 238 235 235 233 229 228 227 228 226 222 221 219 217 214 210 205 203 200 198 198 196 194 194 192 187 184 181 180 179 178 179 182 186
254 251 248 246 246 245 245 243 243 242 237 236 233 232 229 227 226 227 226 222 219 219 217 214 210 207 205 203 200 201 198 195 194 190 188 187 186 186 186 189 192 194 198
254 250 247 245 244 243 242 242 241 240 239 238 235 231 229 227 225 226 224 221 219 218 217 214 211 210 207 205 203 202 200 200 198 196 194 193 192 193 195 198 201 205 210
257 252 248 245 243 242 239 238 238 239 237 238 237 233 230 227 225 226 224 222 220 218 216 214 213 210 209 209 207 205 204 203 201 201 200 200 200 200 203 206 208 213 220
261 254 249 245 243 241 239 237 237 237 235 236 237 235 230 226 225 224 225 223 220 219 217 214 214 212 211 211 211 209 206 206 206 206 207 208 209 208 209 212 215 220 227
268 257 250 247 243 240 238 237 236 235 233 234 235 234 232 228 224 223 224 223 222 221 219 216 214 214 213 212 212 211 210 211 211 211 213 214 215 215 216 219 221 226 233
282 265 254 248 244 242 239 238 235 233 231 231 232 232 232 229 225 222 222 222 220 219 219 217 216 216 215 215 215 214 214 215 214 215 217 217 217 220 223 226 227 232 239
303 282 265 254 248 244 240 238 236 232 230 230 231 231 230 228 226 225 223 222 220 219 219 219 219 219 218 218 219 218 218 218 219 220 220 220 221 224 227 229 231 237 243
320 304 283 265 253 246 243 239 238 234 232 230 229 228 228 228 227 228 225 223 222 221 221 221 221 221 221 221 222 222 222 222 222 223 224 226 227 229 231 232 236 241 247
335 318 300 284 265 253 247 242 240 238 235 232 231 231 229 229 227 226 224 223 223 223 222 222 223 224 222 222 224 224 225 225 225 226 227 229 231 233 232 234 238 243 249
342 333 316 297 280 265 255 248 243 240 237 235 233 232 230 229 227 226 225 223 223 224 224 224 224 224 223 223 225 226 227 227 227 228 229 231 233 234 233 236 240 245 250
349 340 328 310 290 274 263 255 249 244 241 238 235 233 231 228 227 225 225 224 224 225 226 225 225 225 225 226 228 228 229 230 230 230 231 232 233 235 236 239 242 246 251
356 349 337 323 304 285 272 263 255 250 245 241 237 235 233 231 229 227 226 226 225 225 226 226 226 227 228 228 228 229 231 231 232 233 233 233 234 236 238 241 243 246 251
359 355 348 336 321 300 284 273 264 257 250 244 240 237 235 234 232 231 229 228 226 224 225 226 227 228 228 229 229 230 232 233 233 233 234 234 235 237 239 242 244 246 251
1 358 354 346 335 320 300 284 275 266 256 248 243 239 237 235 234 232 230 229 228 226 226 226 227 229 229 229 231 233 233 235 234 234 234 235 237 238 240 242 244 247 251
2 360 357 353 344 333 318 304 289 275 264 254 246 241 238 236 234 232 231 229 229 229 228 228 228 228 228 228 230 232 233 235 236 234 235 237 238 239 241 243 246 248 250
1 0 359 356 350 342 332 318 305 290 274 261 251 245 240 237 234 233 231 230 230 230 229 230 231 230 230 230 230 230 231 234 235 236 236 238 239 240 241 244 246 247 251
359 359 358 356 353 347 340 331 320 306 289 274 261 251 243 238 235 233 232 231 231 231 230 230 232 232 232 232 232 232 231 233 234 236 236 238 240 241 242 244 245 248 250
357 357 356 356 355 351 345 338 330 319 304 288 273 258 248 240 235 233 233 232 231 231 231 230 231 233 234 234 234 233 232 233 234 235 237 238 239 240 243 244 246 247 249
356 355 355 356 355 352 348 343 337 327 316 302 286 269 255 245 237 234 234 233 232 232 233 232 232 234 235 235 235 234 233 234 235 234 236 238 239 240 241 244 245 246 249
353 353 353 354 355 355 352 348 344 337 327 314 298 282 265 252 242 236 234 233 233 234 234 234 234 235 236 237 236 235 235 236 235 235 237 237 239 240 242 244 244 246 248
351 351 352 352 353 353 354 352 349 345 338 328 312 297 278 262 251 243 240 237 236 236 236 236 236 237 237 238 238 237 236 235 235 236 237 239 239 239 241 243 243 245 248
349 349 349 351 351 351 352 352 351 349 346 339 324 308 290 273 261 252 247 244 240 240 240 239 238 237 237 238 238 238 238 237 236 238 240 241 242 242 243 242 243 246 247
346 348 349 349 349 349 348 349 350 350 349 344 335 322 305 287 276 264 256 250 245 243 242 240 238 238 237 238 239 240 239 238 237 239 240 241 242 242 243 243 243 245 247
342 344 346 347 348 347 346 346 347 346 345 342 336 327 314 299 289 278 266 257 251 248 245 243 241 241 239 240 240 241 241 241 240 241 242 242 242 243 244 244 244 246 247
338 340 342 344 345 345 345 344 343 342 341 341 337 332 323 311 299 289 280 269 259 254 251 248 244 243 242 240 240 241 241 242 243 242 242 243 242 243 243 244 244 245 245
Height
5815 5817 5819 5821 5824 5826 5829 5832 5835 5838 5841 5844 5847 5850 5853 5855 5857 5859 5861 5862 5864 5865 5867 5869 5871 5872 5874 5876 5878 5880 5881 5883 5884 5886 5888 5889 5891 5892 5893 5894 5895 5896 5897
5807 5809 5811 5813 5816 5819 5822 5826 5829 5832 5835 5838 5842 5845 5848 5850 5853 5855 5857 5859 5861 5863 5865 5867 5869 5871 5873 5875 5877 5879 5880 5882 5883 5885 5887 5889 5890 5892 5893 5894 5895 5896 5897
5800 5802 5804 5806 5809 5812 5815 5819 5822 5826 5829 5832 5836 5839 5842 5846 5848 5851 5853 5856 5858 5860 5862 5865 5867 5869 5871 5873 5875 5877 5879 5881 5882 5884 5886 5888 5889 5891 5892 5893 5894 5895 5896
5794 5795 5797 5799 5802 5805 5808 5812 5815 5819 5822 5826 5829 5833 5837 5840 5844 5846 5849 5852 5855 5857 5859 5862 5864 5867 5869 5871 5873 5875 5877 5879 5881 5883 5885 5887 5888 5890 5891 5892 5894 5895 5895
5789 5790 5791 5793 5795 5798 5801 5804 5808 5812 5815 5819 5823 5827 5831 5834 5838 5841 5844 5848 5851 5854 5856 5859 5861 5864 5867 5869 5871 5874 5875 5877 5879 5881 5883 5885 5887 5888 5890 5891 5892 5893 5894
5783 5784 5785 5787 5789 5792 5795 5798 5801 5804 5808 5812 5816 5820 5824 5828 5832 5836 5839 5843 5846 5849 5852 5855 5858 5861 5864 5866 5869 5871 5874 5876 5878 5879 5881 5883 5885 5887 5888 5890 5891 5892 5893
5779 5779 5780 5782 5783 5786 5788 5791 5794 5798 5801 5805 5810 5814 5818 5821 5826 5830 5834 5838 5841 5844 5848 5851 5854 5857 5860 5863 5866 5869 5871 5873 5875 5877 5879 5881 5883 5885 5886 5888 5889 5890 5891
5776 5776 5776 5777 5778 5780 5782 5785 5788 5791 5795 5798 5803 5807 5811 5816 5819 5823 5828 5832 5836 5839 5843 5846 5850 5853 5856 5860 5863 5865 5868 5870 5873 5875 5877 5879 5880 5882 5884 5885 5887 5888 5889
5774 5773 5773 5773 5774 5775 5777 5779 5782 5785 5788 5791 5796 5800 5804 5808 5813 5817 5821 5825 5829 5833 5837 5841 5844 5848 5851 5855 5858 5861 5864 5867 5869 5872 5874 5876 5878 5879 5881 5883 5884 5885 5886
5773 5771 5770 5770 5770 5771 5772 5774 5776 5779 5781 5785 5788 5793 5797 5801 5805 5809 5814 5818 5823 5827 5831 5835 5838 5842 5846 5849 5853 5856 5859 5862 5865 5868 5870 5872 5874 5876 5878 5879 5881 5882 5883
5771 5770 5768 5767 5767 5767 5768 5769 5771 5773 5775 5778 5781 5785 5789 5793 5797 5802 5806 5811 5815 5820 5824 5828 5832 5835 5839 5843 5847 5851 5854 5857 5860 5863 5866 5868 5870 5872 5874 5876 5877 5879 5880
5770 5768 5766 5765 5764 5764 5764 5765 5766 5767 5769 5771 5774 5777 5781 5785 5790 5794 5798 5802 5807 5812 5816 5821 5825 5829 5833 5837 5841 5844 5848 5851 5855 5858 5860 5863 5866 5868 5870 5872 5873 5875 5876
5769 5766 5764 5762 5761 5760 5760 5760 5760 5761 5763 5764 5766 5769 5773 5777 5781 5785 5790 5794 5799 5804 5808 5813 5818 5822 5826 5829 5833 5837 5841 5845 5849 5852 5855 5858 5860 5863 5865 5867 5869 5870 5872
5768 5765 5762 5760 5758 5756 5755 5755 5755 5755 5756 5757 5759 5761 5765 5768 5772 5776 5781 5786 5790 5795 5800 5805 5809 5814 5818 5821 5826 5830 5834 5838 5842 5845 5849 5852 5854 5857 5859 5861 5863 5865 5866
5768 5764 5761 5757 5755 5753 5751 5751 5750 5750 5750 5751 5752 5754 5757 5760 5763 5768 5772 5777 5782 5787 5792 5796 5801 5805 5809 5814 5818 5822 5826 5830 5834 5837 5841 5845 5848 5851 5853 5855 5857 5859 5861
5767 5763 5759 5756 5752 5750 5748 5746 5745 5745 5745 5745 5746 5747 5749 5752 5755 5759 5763 5767 5772 5778 5782 5787 5791 5796 5800 5805 5810 5814 5818 5821 5825 5829 5833 5837 5840 5843 5846 5848 5851 5853 5854
5767 5763 5758 5754 5751 5747 5745 5743 5741 5740 5739 5739 5739 5740 5742 5744 5747 5750 5755 5759 5764 5769 5774 5778 5782 5787 5792 5797 5801 5805 5809 5813 5816 5820 5825 5828 5832 5835 5838 5841 5843 5846 5848
5766 5762 5757 5753 5749 5745 5742 5739 5737 5735 5734 5733 5733 5734 5735 5737 5739 5743 5747 5751 5755 5760 5765 5769 5773 5778 5783 5787 5791 5796 5800 5804 5807 5811 5815 5819 5823 5826 5829 5832 5835 5838 5840
5765 5761 5756 5752 5748 5744 5740 5736 5733 5731 5729 5728 5728 5728 5728 5730 5732 5735 5739 5743 5747 5751 5756 5761 5765 5769 5773 5778 5782 5786 5790 5795 5799 5802 5806 5810 5814 5817 5821 5824 5827 5830 5832
5764 5760 5755 5751 5746 5742 5738 5734 5730 5727 5725 5724 5723 5723 5723 5724 5725 5728 5732 5735 5739 5743 5748 5752 5756 5760 5764 5768 5773 5777 5781 5785 5789 5793 5796 5800 5804 5808 5811 5815 5818 5821 5823
5763 5759 5754 5750 5745 5740 5736 5732 5728 5725 5722 5721 5719 5718 5718 5719 5720 5722 5725 5729 5732 5736 5739 5743 5747 5751 5755 5759 5763 5767 5771 5775 5779 5783 5787 5791 5794 5798 5802 5805 5808 5811 5814
5762 5757 5753 5748 5744 5739 5735 5731 5727 5723 5720 5718 5717 5716 5715 5715 5716 5718 5720 5722 5725 5728 5732 5735 5738 5742 5746 5750 5753 5757 5761 5765 5770 5774 5777 5780 5783 5788 5791 5795 5798 5801 5804
5761 5756 5751 5747 5742 5738 5734 5730 5726 5722 5719 5717 5715 5714 5713 5713 5713 5714 5715 5717 5719 5721 5724 5727 5730 5733 5737 5740 5744 5747 5751 5754 5759 5762 5766 5770 5774 5777 5781 5784 5788 5791 5794
5759 5754 5750 5745 5741 5737 5733 5729 5725 5722 5719 5716 5714 5712 5711 5710 5710 5710 5711 5712 5713 5715 5717 5720 5723 5725 5727 5730 5734 5738 5741 5744 5748 5751 5754 5759 5763 5767 5770 5773 5777 5780 5783
5757 5753 5748 5744 5740 5736 5732 5728 5724 5721 5718 5716 5713 5711 5709 5708 5707 5707 5707 5707 5708 5709 5710 5712 5715 5717 5719 5722 5725 5728 5731 5734 5738 5741 5744 5748 5752 5755 5759 5762 5766 5769 5772
5755 5751 5747 5742 5738 5734 5730 5727 5723 5720 5717 5714 5712 5710 5708 5706 5705 5704 5703 5703 5703 5704 5705 5706 5708 5710 5712 5714 5717 5720 5722 5725 5728 5731 5734 5737 5741 5744 5748 5751 5755 5758 5761